| time (UTC) | temp F | wind direction | speed knots | gust knots | rain 1hr in | rain 24hr in | rain mn in | humidity % | barometer mb |
| 20260906234039 | 85 | 171 | 3.5 | 7.8 | 0.00 | 0.00 | 0.00 | 22 | 1012.1 |
| 20260906233018 | 84 | 157 | 2.6 | 7.8 | 0.00 | 0.00 | 0.00 | 22 | 1012.2 |
| 20260906232040 | 85 | 200 | 1.7 | 7.8 | 0.00 | 0.00 | 0.00 | 23 | 1012.2 |
| 20260906231038 | 84 | 165 | 2.6 | 7.8 | 0.00 | 0.00 | 0.00 | 23 | 1012.3 |
| 20260906230018 | 85 | 209 | 3.5 | 8.7 | 0.00 | 0.00 | 0.00 | 23 | 1012.4 |
| 20260906225019 | 84 | 244 | 3.5 | 8.7 | 0.00 | 0.00 | 0.00 | 23 | 1012.4 |
| 20260906224020 | 84 | 251 | 4.3 | 9.6 | 0.00 | 0.00 | 0.00 | 25 | 1012.6 |
| 20260906223016 | 82 | 208 | 3.5 | 9.6 | 0.00 | 0.00 | 0.00 | 28 | 1012.8 |
| 20260906222012 | 82 | 177 | 3.5 | 9.6 | 0.00 | 0.00 | 0.00 | 28 | 1012.9 |
| 20260906221018 | 82 | 230 | 4.3 | 11.3 | 0.00 | 0.00 | 0.00 | 28 | 1013.0 |
| 20260906220035 | 82 | 142 | 3.5 | 12.2 | 0.00 | 0.00 | 0.00 | 28 | 1013.1 |
| 20260906215016 | 82 | 199 | 2.6 | 10.4 | 0.00 | 0.00 | 0.00 | 30 | 1013.1 |
| 20260906214045 | 81 | 100 | 5.2 | 10.4 | 0.00 | 0.00 | 0.00 | 31 | 1013.1 |
| 20260906213026 | 81 | 203 | 4.3 | 9.6 | 0.00 | 0.00 | 0.00 | 32 | 1013.2 |
| 20260906212029 | 80 | 186 | 3.5 | 12.2 | 0.00 | 0.00 | 0.00 | 33 | 1013.3 |
| 20260906211026 | 80 | 223 | 1.7 | 12.2 | 0.00 | 0.00 | 0.00 | 32 | 1013.4 |
| 20260906210020 | 81 | 260 | 2.6 | 7.8 | 0.00 | 0.00 | 0.00 | 32 | 1013.4 |
| 20260906205021 | 80 | 246 | 2.6 | 7.8 | 0.00 | 0.00 | 0.00 | 33 | 1013.3 |
| 20260906204007 | 79 | 260 | 3.5 | 9.6 | 0.00 | 0.00 | 0.00 | 33 | 1013.4 |
| 20260906203023 | 80 | 260 | 5.2 | 8.7 | 0.00 | 0.00 | 0.00 | 33 | 1013.6 |
| 20260906202020 | 80 | 260 | 6.1 | 10.4 | 0.00 | 0.00 | 0.00 | 30 | 1013.4 |
| 20260906201041 | 80 | 172 | 5.2 | 8.7 | 0.00 | 0.00 | 0.00 | 33 | 1013.4 |
| 20260906200036 | 79 | 172 | 2.6 | 9.6 | 0.00 | 0.00 | 0.00 | 33 | 1013.6 |
| 20260906195036 | 80 | 183 | 4.3 | 9.6 | 0.00 | 0.00 | 0.00 | 36 | 1013.8 |
| 20260906194014 | 79 | 154 | 1.7 | 7.8 | 0.00 | 0.00 | 0.00 | 41 | 1013.8 |
| 20260906193015 | 78 | 252 | 4.3 | 7.0 | 0.00 | 0.00 | 0.00 | 38 | 1014.0 |
| 20260906192016 | 78 | 228 | 4.3 | 8.7 | 0.00 | 0.00 | 0.00 | 42 | 1014.0 |
| 20260906191015 | 77 | 122 | 4.3 | 10.4 | 0.00 | 0.00 | 0.00 | 43 | 1014.1 |
| 20260906190014 | 77 | 148 | 3.5 | 7.0 | 0.00 | 0.00 | 0.00 | 43 | 1014.3 |
| 20260906185018 | 76 | 270 | 1.7 | 6.1 | 0.00 | 0.00 | 0.00 | 47 | 1014.3 |
| 20260906184041 | 75 | 216 | 5.2 | 9.6 | 0.00 | 0.00 | 0.00 | 44 | 1014.3 |
| 20260906183037 | 75 | 265 | 4.3 | 8.7 | 0.00 | 0.00 | 0.00 | 47 | 1014.3 |
| 20260906182018 | 75 | 83 | 1.7 | 7.0 | 0.00 | 0.00 | 0.00 | 47 | 1014.3 |
| 20260906181034 | 75 | 209 | 1.7 | 5.2 | 0.00 | 0.00 | 0.00 | 51 | 1014.5 |
| 20260906180011 | 73 | 176 | 2.6 | 6.1 | 0.00 | 0.00 | 0.00 | 52 | 1014.6 |
| 20260906175029 | 73 | 260 | 2.6 | 7.8 | 0.00 | 0.00 | 0.00 | 52 | 1014.6 |
| 20260906174024 | 72 | 161 | 3.5 | 7.0 | 0.00 | 0.00 | 0.00 | 53 | 1014.7 |
| 20260906173029 | 71 | 141 | 2.6 | 7.8 | 0.00 | 0.00 | 0.00 | 53 | 1014.6 |
| 20260906172008 | 71 | 180 | 4.3 | 7.0 | 0.00 | 0.00 | 0.00 | 54 | 1014.6 |
| 20260906171008 | 70 | 168 | 5.2 | 7.8 | 0.00 | 0.00 | 0.00 | 55 | 1014.6 |
| 20260906170008 | 70 | 162 | 4.3 | 8.7 | 0.00 | 0.01 | 0.00 | 54 | 1014.6 |
| 20260906165008 | 69 | 159 | 4.3 | 8.7 | 0.00 | 0.01 | 0.00 | 55 | 1014.6 |
| 20260906164009 | 69 | 178 | 3.5 | 9.6 | 0.00 | 0.01 | 0.00 | 55 | 1014.5 |
| 20260906163044 | 69 | 180 | 4.3 | 7.8 | 0.00 | 0.01 | 0.00 | 56 | 1014.5 |
| 20260906162024 | 68 | 157 | 4.3 | 8.7 | 0.00 | 0.01 | 0.00 | 59 | 1014.6 |
| 20260906161044 | 67 | 139 | 3.5 | 6.1 | 0.00 | 0.01 | 0.00 | 62 | 1014.6 |
| 20260906160020 | 66 | 159 | 5.2 | 7.8 | 0.00 | 0.01 | 0.00 | 65 | 1014.6 |
| 20260906155023 | 65 | 165 | 5.2 | 7.8 | 0.00 | 0.01 | 0.00 | 68 | 1014.6 |
| 20260906154042 | 64 | 170 | 3.5 | 7.8 | 0.00 | 0.01 | 0.00 | 71 | 1014.6 |
| 20260906153020 | 63 | 218 | 2.6 | 7.8 | 0.00 | 0.01 | 0.00 | 72 | 1014.7 |
| 20260906152042 | 63 | 186 | 3.5 | 8.7 | 0.00 | 0.01 | 0.00 | 74 | 1014.7 |
| 20260906151019 | 62 | 109 | 3.5 | 7.8 | 0.00 | 0.01 | 0.00 | 75 | 1014.8 |
| 20260906150017 | 61 | 143 | 5.2 | 8.7 | 0.00 | 0.01 | 0.00 | 76 | 1014.7 |
| 20260906145039 | 60 | 126 | 4.3 | 7.0 | 0.00 | 0.01 | 0.00 | 78 | 1014.7 |
| 20260906144014 | 59 | 132 | 3.5 | 7.0 | 0.00 | 0.01 | 0.00 | 78 | 1014.7 |
| 20260906143013 | 59 | 123 | 1.7 | 5.2 | 0.00 | 0.01 | 0.00 | 77 | 1014.5 |
| 20260906142017 | 58 | 202 | 3.5 | 6.1 | 0.00 | 0.01 | 0.00 | 77 | 1014.3 |
| 20260906141017 | 58 | 100 | 1.7 | 3.5 | 0.00 | 0.01 | 0.00 | 77 | 1014.3 |
| 20260906140036 | 58 | 132 | 1.7 | 5.2 | 0.00 | 0.01 | 0.00 | 77 | 1014.1 |
| 20260906135019 | 58 | 135 | 2.6 | 4.3 | 0.00 | 0.01 | 0.00 | 76 | 1014.0 |
| 20260906134015 | 58 | 130 | 1.7 | 4.3 | 0.00 | 0.01 | 0.00 | 77 | 1013.9 |
| 20260906133017 | 58 | 116 | 1.7 | 3.5 | 0.00 | 0.01 | 0.00 | 76 | 1014.0 |
| 20260906132017 | 58 | 111 | 1.7 | 3.5 | 0.00 | 0.01 | 0.00 | 75 | 1013.9 |
| 20260906131017 | 58 | 107 | 2.6 | 4.3 | 0.00 | 0.01 | 0.00 | 74 | 1013.7 |
| 20260906130013 | 58 | 110 | 1.7 | 4.3 | 0.00 | 0.01 | 0.00 | 73 | 1013.8 |
| 20260906125012 | 58 | 141 | 2.6 | 4.3 | 0.00 | 0.01 | 0.00 | 72 | 1013.7 |
| 20260906124010 | 58 | 134 | 2.6 | 4.3 | 0.00 | 0.01 | 0.00 | 72 | 1013.7 |
| 20260906123009 | 58 | 139 | 1.7 | 4.3 | 0.00 | 0.01 | 0.00 | 73 | 1013.7 |
| 20260906122036 | 58 | 103 | 2.6 | 3.5 | 0.00 | 0.01 | 0.00 | 73 | 1013.5 |
| 20260906121013 | 58 | 119 | 1.7 | 3.5 | 0.00 | 0.01 | 0.00 | 72 | 1013.7 |
| 20260906120012 | 58 | 131 | 0.9 | 1.7 | 0.00 | 0.01 | 0.00 | 72 | 1013.6 |
| 20260906115012 | 58 | 130 | 1.7 | 2.6 | 0.00 | 0.01 | 0.00 | 72 | 1013.5 |
| 20260906114006 | 59 | 111 | 1.7 | 3.5 | 0.00 | 0.01 | 0.00 | 72 | 1013.5 |
| 20260906113012 | 59 | 145 | 1.7 | 3.5 | 0.00 | 0.01 | 0.00 | 72 | 1013.6 |
| 20260906112012 | 59 | 131 | 0.9 | 4.3 | 0.00 | 0.01 | 0.00 | 71 | 1013.5 |
| 20260906111011 | 59 | 125 | 2.6 | 3.5 | 0.00 | 0.01 | 0.00 | 71 | 1013.5 |
| 20260906110012 | 59 | 134 | 1.7 | 2.6 | 0.00 | 0.01 | 0.00 | 70 | 1013.4 |
| 20260906105011 | 60 | 127 | 1.7 | 3.5 | 0.00 | 0.01 | 0.00 | 70 | 1013.3 |
| 20260906104006 | 60 | 141 | 2.6 | 4.3 | 0.00 | 0.01 | 0.00 | 70 | 1013.3 |
| 20260906103013 | 60 | 175 | 1.7 | 3.5 | 0.00 | 0.01 | 0.00 | 69 | 1013.4 |
| 20260906102017 | 60 | 163 | 0.9 | 3.5 | 0.00 | 0.01 | 0.00 | 68 | 1013.4 |
| 20260906101020 | 61 | 164 | 1.7 | 3.5 | 0.00 | 0.01 | 0.00 | 67 | 1013.4 |
| 20260906100015 | 61 | 129 | 1.7 | 7.8 | 0.00 | 0.01 | 0.00 | 65 | 1013.3 |
| 20260906095038 | 61 | 157 | 2.6 | 7.8 | 0.00 | 0.01 | 0.00 | 64 | 1013.3 |
| 20260906094022 | 62 | 154 | 3.5 | 4.3 | 0.00 | 0.01 | 0.00 | 63 | 1013.3 |
| 20260906093036 | 62 | 175 | 2.6 | 6.1 | 0.00 | 0.01 | 0.00 | 60 | 1013.4 |
| 20260906092018 | 62 | 162 | 2.6 | 5.2 | 0.00 | 0.01 | 0.00 | 59 | 1013.4 |
| 20260906091039 | 63 | 193 | 1.7 | 5.2 | 0.00 | 0.01 | 0.00 | 57 | 1013.5 |
| 20260906090016 | 63 | 178 | 2.6 | 5.2 | 0.00 | 0.01 | 0.00 | 58 | 1013.5 |
| 20260906085021 | 63 | 161 | 1.7 | 3.5 | 0.00 | 0.01 | 0.00 | 57 | 1013.7 |
| 20260906084027 | 63 | 143 | 1.7 | 4.3 | 0.00 | 0.01 | 0.00 | 57 | 1013.7 |
| 20260906083026 | 63 | 139 | 1.7 | 2.6 | 0.00 | 0.01 | 0.00 | 58 | 1013.6 |
| 20260906082011 | 63 | 151 | 1.7 | 3.5 | 0.00 | 0.01 | 0.00 | 57 | 1013.5 |
| 20260906081014 | 64 | 161 | 1.7 | 4.3 | 0.00 | 0.01 | 0.00 | 56 | 1013.5 |
| 20260906080015 | 64 | 134 | 1.7 | 4.3 | 0.00 | 0.01 | 0.00 | 55 | 1013.5 |
| 20260906075018 | 64 | 140 | 1.7 | 2.6 | 0.00 | 0.01 | 0.00 | 55 | 1013.6 |
| 20260906074021 | 64 | 114 | 1.7 | 3.5 | 0.00 | 0.01 | 0.00 | 55 | 1013.6 |
| 20260906073020 | 64 | 118 | 1.7 | 3.5 | 0.00 | 0.01 | 0.00 | 55 | 1013.7 |
| 20260906072042 | 65 | 135 | 0.9 | 2.6 | 0.00 | 0.01 | 0.00 | 54 | 1013.7 |
| 20260906071022 | 65 | 125 | 0.0 | 2.6 | 0.00 | 0.01 | 0.00 | 53 | 1013.7 |
| 20260906070019 | 66 | 107 | 1.7 | 3.5 | 0.00 | 0.01 | 0.00 | 52 | 1013.7 |
| 20260906065026 | 66 | 145 | 0.9 | 2.6 | 0.00 | 0.01 | 0.01 | 51 | 1013.6 |
| 20260906064021 | 66 | 132 | 1.7 | 2.6 | 0.00 | 0.01 | 0.01 | 50 | 1013.5 |
| 20260906063017 | 67 | 119 | 1.7 | 3.5 | 0.00 | 0.01 | 0.01 | 49 | 1013.7 |
| 20260906062012 | 67 | 115 | 0.9 | 2.6 | 0.00 | 0.01 | 0.01 | 51 | 1013.6 |
| 20260906061026 | 68 | 132 | 0.9 | 2.6 | 0.00 | 0.01 | 0.01 | 50 | 1013.7 |
| 20260906060025 | 68 | 152 | 1.7 | 2.6 | 0.00 | 0.01 | 0.01 | 50 | 1013.7 |
| 20260906055023 | 69 | 149 | 0.9 | 3.5 | 0.00 | 0.01 | 0.01 | 49 | 1013.7 |
| 20260906054016 | 69 | 119 | 1.7 | 2.6 | 0.00 | 0.01 | 0.01 | 48 | 1013.7 |
| 20260906053011 | 70 | 167 | 0.0 | 2.6 | 0.00 | 0.01 | 0.01 | 48 | 1013.5 |
| 20260906052013 | 70 | 135 | 1.7 | 5.2 | 0.00 | 0.01 | 0.01 | 47 | 1013.6 |
| 20260906051029 | 71 | 228 | 0.9 | 3.5 | 0.00 | 0.01 | 0.01 | 46 | 1013.3 |
| 20260906050008 | 71 | 235 | 0.0 | 7.0 | 0.00 | 0.01 | 0.01 | 46 | 1013.3 |
| 20260906045010 | 72 | 226 | 1.7 | 5.2 | 0.00 | 0.01 | 0.01 | 46 | 1013.3 |
| 20260906044040 | 72 | 233 | 0.9 | 4.3 | 0.00 | 0.01 | 0.01 | 46 | 1013.3 |
| 20260906043011 | 73 | 206 | 2.6 | 4.3 | 0.00 | 0.01 | 0.01 | 46 | 1013.3 |
| 20260906042028 | 73 | 242 | 1.7 | 7.0 | 0.00 | 0.01 | 0.01 | 45 | 1013.2 |
| 20260906041008 | 74 | 241 | 1.7 | 7.8 | 0.00 | 0.01 | 0.01 | 44 | 1013.2 |
| 20260906040028 | 74 | 251 | 0.9 | 4.3 | 0.00 | 0.01 | 0.01 | 44 | 1013.2 |
| 20260906035022 | 75 | 182 | 1.7 | 3.5 | 0.00 | 0.01 | 0.01 | 43 | 1012.9 |
| 20260906034025 | 75 | 241 | 1.7 | 4.3 | 0.00 | 0.01 | 0.01 | 42 | 1012.8 |
| 20260906033045 | 76 | 230 | 2.6 | 6.1 | 0.00 | 0.01 | 0.01 | 41 | 1012.8 |
| 20260906032016 | 76 | 251 | 1.7 | 7.8 | 0.00 | 0.01 | 0.01 | 40 | 1012.8 |
| 20260906031036 | 76 | 253 | 1.7 | 5.2 | 0.00 | 0.01 | 0.01 | 37 | 1012.6 |
| 20260906030013 | 77 | 260 | 0.9 | 4.3 | 0.00 | 0.01 | 0.01 | 35 | 1012.6 |
| 20260906025007 | 77 | 240 | 1.7 | 2.6 | 0.00 | 0.01 | 0.01 | 34 | 1012.5 |
| 20260906024026 | 78 | 211 | 0.9 | 2.6 | 0.00 | 0.01 | 0.01 | 34 | 1012.4 |
| 20260906023022 | 78 | 216 | 0.9 | 6.1 | 0.00 | 0.01 | 0.01 | 34 | 1012.5 |
| 20260906022016 | 79 | 170 | 4.3 | 8.7 | 0.00 | 0.01 | 0.01 | 33 | 1012.5 |
| 20260906021009 | 80 | 155 | 1.7 | 5.2 | 0.00 | 0.01 | 0.01 | 34 | 1012.5 |
| 20260906020024 | 81 | 218 | 1.7 | 7.0 | 0.00 | 0.01 | 0.01 | 34 | 1012.6 |
| 20260906015021 | 81 | 260 | 4.3 | 7.8 | 0.00 | 0.01 | 0.01 | 33 | 1012.6 |
| 20260906014021 | 82 | 172 | 2.6 | 5.2 | 0.00 | 0.01 | 0.01 | 35 | 1012.5 |
| 20260906013017 | 83 | 189 | 0.9 | 5.2 | 0.00 | 0.01 | 0.01 | 34 | 1012.5 |
| 20260906012010 | 83 | 241 | 3.5 | 7.0 | 0.00 | 0.01 | 0.01 | 33 | 1012.5 |
| 20260906011008 | 83 | 169 | 4.3 | 7.0 | 0.00 | 0.01 | 0.01 | 34 | 1012.6 |
| 20260906010009 | 83 | 176 | 1.7 | 7.0 | 0.00 | 0.01 | 0.01 | 34 | 1012.6 |
| 20260906005009 | 84 | 193 | 2.6 | 9.6 | 0.00 | 0.01 | 0.01 | 33 | 1012.6 |
| 20260906004044 | 84 | 216 | 1.7 | 8.7 | 0.00 | 0.01 | 0.01 | 34 | 1012.5 |
| 20260906003033 | 84 | 24 | 0.9 | 7.8 | 0.00 | 0.01 | 0.01 | 31 | 1012.6 |
| 20260906002006 | 84 | 216 | 4.3 | 9.6 | 0.00 | 0.01 | 0.01 | 32 | 1012.5 |
| 20260906001026 | 83 | 189 | 4.3 | 7.8 | 0.00 | 0.01 | 0.01 | 34 | 1012.6 |
| 20260906000023 | 83 | 162 | 3.5 | 7.0 | 0.00 | 0.01 | 0.01 | 33 | 1012.6 |
| 20260905235023 | 84 | 186 | 2.6 | 6.1 | 0.00 | 0.01 | 0.01 | 33 | 1012.7 |